Weather History for Winona, MN

Change the Weather History Date:

Saturday, May 26, 2012

  Actual Average Record
Temperature  
Mean Temperature 64 °F -  
Max Temperature 69 °F 65 °F 86 °F (2014)
Min Temperature 59 °F 47 °F 41 °F (2011)
Degree Days  
Heating Degree Days 1    
Growing Degree Days 14 (Base 50)    
Moisture  
Dew Point 59 °F    
Average Humidity 85    
Maximum Humidity 94    
Minimum Humidity 73    
Precipitation  
Precipitation 0.59 in - - ()
Sea Level Pressure  
Sea Level Pressure 30.05 in    
Wind  
Wind Speed 6 mph (ESE)    
Max Wind Speed 25 mph    
Max Gust Speed 31 mph    
Visibility 9 miles    
Events Rain , Thunderstorm    
Averages and records for this station are not official NWS values.
T = Trace of Precipitation, MM = Missing Value Source: NWS Daily Summary

Daily Weather History Graph

Daily Weather History Graph

Search for Another Location

Airport:

Trip Planner

Search our weather history database for the weather conditions in past years. The results will help you decide how hot, cold, wet, or windy it might be!

Date:

Astronomy

May. 26, 2012 Rise Set
Actual Time 5:30 AM CDT 8:38 PM CDT
Civil Twilight 4:55 AM CDT 9:13 PM CDT
Nautical Twilight 4:10 AM CDT 9:58 PM CDT
Astronomical Twilight 3:16 AM CDT 10:52 PM CDT
Moon 10:37 AM CDT 12:08 AM CDT
Length of Visible Light 16h 17m
Length of Day
15h 08m
Waxing Crescent, 28% of the Moon is Illuminated
May 26
Waxing Crescent
May 28
First Quarter
Jun 4
Full
Jun 11
Last Quarter
Jun 19
New

Hourly Weather History & Observations

Time (CDT) Temp. Dew Point Humidity Pressure Visibility Wind Dir Wind Speed Gust Speed Precip Events Conditions
12:14 AM 60.8 °F 59.0 °F 94% 30.12 in 5.0 mi Calm Calm - N/A   Light Drizzle
12:33 AM 60.8 °F 59.0 °F 94% 30.12 in 7.0 mi Calm Calm - N/A   Overcast
12:54 AM 60.8 °F 59.0 °F 94% 30.12 in 7.0 mi Calm Calm - N/A Rain Light Rain
1:13 AM 60.8 °F 59.0 °F 94% 30.12 in 7.0 mi Calm Calm - N/A   Overcast
1:34 AM 60.8 °F 59.0 °F 94% 30.12 in 4.0 mi Calm Calm - 0.01 in Rain Light Rain
1:54 AM 60.8 °F 59.0 °F 94% 30.13 in 7.0 mi Calm Calm - 0.02 in Rain Light Rain
2:13 AM 60.8 °F 59.0 °F 94% 30.11 in 10.0 mi Calm Calm - N/A   Overcast
2:34 AM 60.8 °F 59.0 °F 94% 30.11 in 10.0 mi Calm Calm - N/A   Overcast
2:54 AM 60.8 °F 59.0 °F 94% 30.12 in 10.0 mi SE 3.5 mph - N/A Rain Light Rain
3:13 AM 60.8 °F 59.0 °F 94% 30.12 in 10.0 mi SE 3.5 mph - N/A   Overcast
3:33 AM 60.8 °F 59.0 °F 94% 30.11 in 10.0 mi Calm Calm - N/A   Overcast
3:54 AM 60.8 °F 59.0 °F 94% 30.12 in 10.0 mi ESE 3.5 mph - N/A   Overcast
4:13 AM 60.8 °F 59.0 °F 94% 30.12 in 10.0 mi ESE 5.8 mph - N/A   Overcast
4:34 AM 60.8 °F 57.2 °F 88% 30.13 in 10.0 mi East 5.8 mph - N/A   Overcast
4:53 AM 60.8 °F 57.2 °F 88% 30.12 in 10.0 mi ESE 4.6 mph - N/A   Overcast
5:14 AM 60.8 °F 57.2 °F 88% 30.12 in 10.0 mi ESE 5.8 mph - N/A   Overcast
5:34 AM 60.8 °F 57.2 °F 88% 30.14 in 10.0 mi SE 4.6 mph - N/A Rain , Thunderstorm Light Thunderstorms and Rain
5:53 AM 60.8 °F 57.2 °F 88% 30.15 in 7.0 mi Calm Calm - N/A Rain , Thunderstorm Light Thunderstorms and Rain
6:14 AM 59.0 °F 57.2 °F 94% 30.12 in 5.0 mi SE 8.1 mph - 0.03 in Rain Rain
6:34 AM 59.0 °F 57.2 °F 94% 30.11 in 10.0 mi ESE 9.2 mph - 0.03 in   Overcast
7:14 AM 59.0 °F 57.2 °F 94% 30.08 in 10.0 mi ESE 10.4 mph - N/A   Mostly Cloudy
7:34 AM 60.8 °F 57.2 °F 88% 30.07 in 10.0 mi ESE 11.5 mph 16.1 mph N/A   Overcast
7:53 AM 60.8 °F 57.2 °F 88% 30.08 in 10.0 mi ESE 8.1 mph - N/A   Overcast
8:14 AM 60.8 °F 57.2 °F 88% 30.10 in 10.0 mi SE 6.9 mph - N/A   Overcast
8:33 AM 60.8 °F 57.2 °F 88% 30.11 in 10.0 mi SE 5.8 mph - N/A   Overcast
8:53 AM 62.6 °F 59.0 °F 88% 30.12 in 10.0 mi SSE 5.8 mph - N/A   Overcast
9:14 AM 64.4 °F 59.0 °F 83% 30.10 in 10.0 mi ESE 6.9 mph - N/A   Overcast
9:33 AM 64.4 °F 59.0 °F 83% 30.09 in 10.0 mi ESE 10.4 mph - N/A   Mostly Cloudy
9:54 AM 62.6 °F 57.2 °F 82% 30.08 in 10.0 mi ESE 10.4 mph - N/A   Overcast
10:13 AM 64.4 °F 59.0 °F 83% 30.09 in 10.0 mi ESE 9.2 mph - N/A   Overcast
10:34 AM 66.2 °F 59.0 °F 78% 30.09 in 10.0 mi SE 13.8 mph - N/A   Overcast
10:54 AM 68.0 °F 59.0 °F 73% 30.09 in 10.0 mi ESE 9.2 mph - N/A   Overcast
11:13 AM 64.4 °F 57.2 °F 77% 30.10 in 10.0 mi SE 9.2 mph - N/A   Overcast
11:34 AM 64.4 °F 57.2 °F 77% 30.12 in 10.0 mi East 5.8 mph - N/A   Overcast
11:54 AM 64.4 °F 57.2 °F 77% 30.12 in 10.0 mi East 4.6 mph - N/A   Overcast
12:13 PM 64.4 °F 59.0 °F 83% 30.14 in 10.0 mi NE 5.8 mph - N/A   Overcast
12:34 PM 64.4 °F 59.0 °F 83% 30.13 in 10.0 mi ENE 5.8 mph - N/A   Overcast
12:54 PM 62.6 °F 59.0 °F 88% 30.12 in 2.0 mi NNE 11.5 mph - 0.17 in Rain , Thunderstorm Heavy Thunderstorms and Rain
1:13 PM 62.6 °F 59.0 °F 88% 30.09 in 7.0 mi ESE 8.1 mph - 0.06 in Rain , Thunderstorm Light Thunderstorms and Rain
1:34 PM 62.6 °F 59.0 °F 88% 30.13 in 10.0 mi West 8.1 mph - 0.07 in Rain , Thunderstorm Thunderstorms and Rain
1:54 PM 62.6 °F 59.0 °F 88% 30.03 in 2.5 mi SE 25.3 mph 31.1 mph 0.30 in Rain , Thunderstorm Heavy Thunderstorms and Rain
2:13 PM 62.6 °F 59.0 °F 88% 30.00 in 10.0 mi SE 20.7 mph 28.8 mph 0.04 in Rain , Thunderstorm Thunderstorms and Rain
2:34 PM 62.6 °F 60.8 °F 94% 30.00 in 10.0 mi SE 16.1 mph 21.9 mph 0.05 in Rain , Thunderstorm Light Thunderstorms and Rain
2:54 PM 62.6 °F 59.0 °F 88% 30.00 in 10.0 mi ESE 20.7 mph 28.8 mph 0.05 in Rain Light Rain
3:14 PM 62.6 °F 59.0 °F 88% 30.00 in 10.0 mi SE 23.0 mph 31.1 mph N/A   Mostly Cloudy
3:34 PM 62.6 °F 60.8 °F 94% 29.99 in 10.0 mi SE 11.5 mph 23.0 mph 0.01 in Rain , Thunderstorm Light Thunderstorms and Rain
3:54 PM 64.4 °F 60.8 °F 88% 30.00 in 10.0 mi ESE 11.5 mph - 0.02 in Rain , Thunderstorm Light Thunderstorms and Rain
4:13 PM 64.4 °F 60.8 °F 88% 29.96 in 10.0 mi ESE 11.5 mph - N/A   Light Drizzle
4:34 PM 64.4 °F 60.8 °F 88% 29.95 in 10.0 mi SE 16.1 mph - N/A   Scattered Clouds
4:53 PM 64.4 °F 60.8 °F 88% 29.94 in 10.0 mi SE 10.4 mph 20.7 mph N/A   Clear
5:14 PM 68.0 °F 62.6 °F 83% 29.94 in 10.0 mi ESE 12.7 mph - N/A   Clear
5:33 PM 68.0 °F 60.8 °F 78% 29.98 in 10.0 mi ESE 9.2 mph - N/A   Clear
5:54 PM 69.8 °F 62.6 °F 78% 30.00 in 10.0 mi ENE 3.5 mph - N/A   Scattered Clouds
6:14 PM 69.8 °F 64.4 °F 83% 29.98 in 10.0 mi SE 6.9 mph - N/A   Mostly Cloudy
6:33 PM 69.8 °F 62.6 °F 78% 29.98 in 10.0 mi ESE 9.2 mph - N/A   Mostly Cloudy
6:54 PM 69.8 °F 62.6 °F 78% 29.99 in 10.0 mi SE 8.1 mph - N/A   Scattered Clouds
7:14 PM 69.8 °F 62.6 °F 78% 29.99 in 10.0 mi SE 8.1 mph - N/A   Scattered Clouds
7:33 PM 68.0 °F 60.8 °F 78% 29.97 in 10.0 mi ESE 10.4 mph - N/A   Mostly Cloudy
7:54 PM 68.0 °F 60.8 °F 78% 29.95 in 10.0 mi SE 9.2 mph 16.1 mph N/A   Overcast
8:14 PM 68.0 °F 60.8 °F 78% 29.92 in 10.0 mi SE 9.2 mph - N/A   Mostly Cloudy
8:33 PM 68.0 °F 60.8 °F 78% 29.92 in 10.0 mi SSE 9.2 mph - N/A   Clear
8:54 PM 69.8 °F 62.6 °F 78% 29.92 in 10.0 mi SSE 6.9 mph - N/A   Clear
9:14 PM 69.8 °F 62.6 °F 78% 29.92 in 10.0 mi SSE 12.7 mph - N/A   Clear
9:33 PM 69.8 °F 62.6 °F 78% 29.92 in 10.0 mi SE 13.8 mph 18.4 mph N/A   Clear
9:54 PM 68.0 °F 60.8 °F 78% 29.92 in 10.0 mi SE 11.5 mph 16.1 mph N/A   Clear
10:14 PM 68.0 °F 60.8 °F 78% 29.94 in 10.0 mi SE 10.4 mph - N/A   Clear
10:34 PM 68.0 °F 60.8 °F 78% 29.96 in 10.0 mi SE 5.8 mph - N/A   Scattered Clouds
10:54 PM 68.0 °F 60.8 °F 78% 29.95 in 10.0 mi ESE 6.9 mph - N/A   Overcast
11:14 PM 68.0 °F 60.8 °F 78% 29.95 in 10.0 mi SE 8.1 mph - N/A   Overcast
11:34 PM 68.0 °F 59.0 °F 73% 29.94 in 10.0 mi SE 9.2 mph - N/A   Overcast
11:54 PM 68.0 °F 59.0 °F 73% 29.93 in 10.0 mi SE 9.2 mph - N/A   Overcast